This is the latest recevied weather packets stored in our database for station/object CX5ACA-13. If no packets are shown the sender has not sent any weather packets the latest 10 day(s).
| Time | Temp. | Humidity | Pressure | Rain* | Wind** | Luminosity | Snow |
|---|---|---|---|---|---|---|---|
| 1777788194 | 14.44° C | 58% | 1025.3 hPa | 0 mm | - | 0 W/m² | - |
| 1777787889 | 14.44° C | 57% | 1025.3 hPa | 0 mm | - | 0 W/m² | - |
| 1777787586 | 14.44° C | 58% | 1025.4 hPa | 0 mm | - | 0 W/m² | - |
| 1777787281 | 14.44° C | 56% | 1025.3 hPa | 0 mm | - | 0 W/m² | - |
| 1777786978 | 14.44° C | 57% | 1025.5 hPa | 0 mm | - | 0 W/m² | - |
| 1777786675 | 14.44° C | 56% | 1025.5 hPa | 0 mm | - | 0 W/m² | - |
| 1777786374 | 14.44° C | 58% | 1025.5 hPa | 0 mm | - | 0 W/m² | - |
| 1777786070 | 14.44° C | 56% | 1025.5 hPa | 0 mm | - | 0 W/m² | - |
| 1777785768 | 14.44° C | 57% | 1025.3 hPa | 0 mm | - | 0 W/m² | - |
| 1777785463 | 14.44° C | 56% | 1025.6 hPa | 0 mm | - | 0 W/m² | - |
| 1777785161 | 14.44° C | 56% | 1025.5 hPa | 0 mm | - | 0 W/m² | - |
| 1777784856 | 14.44° C | 55% | 1025.6 hPa | 0 mm | - | 0 W/m² | - |
| 1777784552 | 14.44° C | 58% | 1025.8 hPa | 0 mm | - | 0 W/m² | - |
| 1777784250 | 14.44° C | 58% | 1025.7 hPa | 0 mm | - | 0 W/m² | - |
| 1777783948 | 14.44° C | 57% | 1025.7 hPa | 0 mm | - | 0 W/m² | - |
| 1777783644 | 15° C | 55% | 1025.6 hPa | 0 mm | - | 0 W/m² | - |
| 1777783341 | 15° C | 57% | 1025.6 hPa | 0 mm | - | 0 W/m² | - |
| 1777783038 | 15° C | 57% | 1025.8 hPa | 0 mm | - | 0 W/m² | - |
| 1777782736 | 15° C | 57% | 1025.8 hPa | 0 mm | - | 0 W/m² | - |
| 1777782431 | 15° C | 56% | 1025.7 hPa | 0 mm | - | 0 W/m² | - |
| 1777782128 | 15° C | 56% | 1025.8 hPa | 0 mm | - | 0 W/m² | - |
| 1777781824 | 15° C | 57% | 1025.6 hPa | 0 mm | - | 0 W/m² | - |
| 1777781522 | 15° C | 57% | 1025.6 hPa | 0 mm | - | 0 W/m² | - |
| 1777781219 | 15° C | 56% | 1025.9 hPa | 0 mm | - | 0 W/m² | - |
| 1777780917 | 15° C | 57% | 1025.8 hPa | 0 mm | - | 0 W/m² | - |
* Rain latest hour (hover to see other rain measurements)
** Current wind speed in m/s (hover to see current wind gust speed)